Location: Newark
(9.4667°S, 159.8167°E)
Time: 03:55:43
(UTC+00:00)

Vanguard 1 - Pass Details

Date: 18 November 2019
Orbit: 652 x 3831 km, 34.2° (Epoch: 05 December)

Event Time Altitude Azimuth Distance (km) Brightness Sun altitude
Rises 17:40:22 0° 233° (SW) 7,677 14.3 -16.6°
Reaches altitude 10° 17:45:30 10° 230° (SW) 6,827 14.1 -15.4°
Maximum altitude 18:09:18 67° 149° (SSE) 3,736 13.2 -10.0°
Drops below altitude 10° 18:26:38 10° 69° (ENE) 5,258 14.6 -6.0°
Sets 18:29:56 0° 66° (ENE) 5,923 14.8 -5.2°
